Tampa Macdill AFB, FL

7:45 PM EDT on March 25, 2017 (GMT -0400)
MacDill Air Force Base

Weather History for KMCF - February, 2013

Change the Weather History Date:

Monday, February 18, 2013

  Actual Average Record
Temperature  
Mean Temperature 50 °F -  
Max Temperature 69 °F 71 °F 82 °F (1997)
Min Temperature 32 °F 53 °F 32 °F (2013)
Degree Days  
Heating Degree Days 14    
Moisture  
Dew Point 38 °F    
Average Humidity 66    
Maximum Humidity 93    
Minimum Humidity 35    
Precipitation  
Precipitation 0.00 in - - ()
Sea Level Pressure  
Sea Level Pressure 30.32 in    
Wind  
Wind Speed 8 mph (East)    
Max Wind Speed 14 mph    
Max Gust Speed 17 mph    
Visibility 9 miles    
Events      
Averages and records for this station are not official NWS values.
T = Trace of Precipitation, MM = Missing Value Source: NWS Daily Summary

Daily Weather History Graph

Daily Weather History Graph

Search for Another Location

Airport or City:

Trip Planner

Search our weather history database for the weather conditions in past years. The results will help you decide how hot, cold, wet, or windy it might be!

Date:

Astronomy

Feb. 18, 2013 Rise Set
Actual Time 7:04 AM EST 6:23 PM EST
Civil Twilight 6:40 AM EST 6:47 PM EST
Nautical Twilight 6:13 AM EST 7:14 PM EST
Astronomical Twilight 5:46 AM EST 7:42 PM EST
Moon 12:22 PM EST (2/18) 1:29 AM EST (2/18)
Length of Visible Light 12h 06m
Length of Day
11h 18m
First Quarter, 58% of the Moon is Illuminated
Feb 18
First Quarter
Feb 25
Full
Mar 4
Last Quarter
Mar 11
New
Mar 19
First Quarter

Hourly Weather History & Observations

Time (EST) Temp. Windchill Dew Point Humidity Pressure Visibility Wind Dir Wind Speed Gust Speed Precip Events Conditions
12:58 AM 37.4 °F 32.8 °F 30.2 °F 75% 30.36 in 10.0 mi ENE 5.8 mph - N/A   Clear
1:58 AM 36.3 °F 30.1 °F 29.7 °F 77% 30.36 in 10.0 mi ENE 8.1 mph - N/A   Clear
2:58 AM 35.6 °F 29.2 °F 32.0 °F 87% 30.35 in 10.0 mi ENE 8.1 mph - N/A   Clear
3:58 AM 33.8 °F 27.0 °F 30.2 °F 87% 30.34 in 10.0 mi ENE 8.1 mph - N/A   Clear
4:58 AM 33.8 °F 27.7 °F 32.0 °F 93% 30.34 in 10.0 mi East 6.9 mph - N/A   Clear
5:58 AM 33.4 °F 25.9 °F 30.0 °F 87% 30.35 in 10.0 mi East 9.2 mph - N/A   Clear
6:58 AM 32.0 °F 24.8 °F 28.4 °F 87% 30.36 in 10.0 mi ENE 8.1 mph - N/A   Clear
7:55 AM 35.6 °F 29.2 °F 33.8 °F 93% 30.35 in 10.0 mi ENE 8.1 mph - N/A   Scattered Clouds
7:58 AM 37.4 °F 31.4 °F 33.8 °F 87% 30.36 in 10.0 mi ENE 8.1 mph - N/A   Scattered Clouds
8:00 AM 37.4 °F 31.4 °F 35.6 °F 93% 30.35 in 9.0 mi ENE 8.1 mph - N/A   Smoke
8:12 AM 39.2 °F 33.6 °F 35.6 °F 87% 30.35 in 9.0 mi ENE 8.1 mph - N/A   Smoke
8:43 AM 44.6 °F 39.7 °F 39.2 °F 81% 30.36 in 10.0 mi ENE 9.2 mph - N/A   Clear
8:58 AM 48.2 °F - 35.6 °F 62% 30.37 in 5.0 mi East 11.5 mph - N/A   Haze
9:18 AM 50.0 °F - 32.0 °F 50% 30.37 in 2.5 mi ENE 12.7 mph - N/A   Haze
9:28 AM 50.0 °F - 26.6 °F 40% 30.36 in 3.0 mi East 13.8 mph - N/A   Haze
9:58 AM 53.6 °F - 26.6 °F 35% 30.38 in 10.0 mi East 11.5 mph - N/A   Clear
10:58 AM 57.2 °F - 32.0 °F 38% 30.38 in 10.0 mi East 11.5 mph - N/A   Clear
11:58 AM 60.8 °F - 35.6 °F 39% 30.36 in 10.0 mi ESE 9.2 mph - N/A   Clear
12:58 PM 64.4 °F - 39.2 °F 40% 30.32 in 10.0 mi SE 10.4 mph 17.3 mph N/A   Clear
1:58 PM 68.0 °F - 42.8 °F 40% 30.29 in 10.0 mi SSE 11.5 mph - N/A   Clear
2:58 PM 68.0 °F - 44.6 °F 43% 30.27 in 10.0 mi SSE 10.4 mph - N/A   Clear
3:58 PM 69.8 °F - 42.8 °F 38% 30.26 in 10.0 mi SSE 8.1 mph - N/A   Clear
4:58 PM 69.8 °F - 44.6 °F 40% 30.26 in 10.0 mi SSE 9.2 mph - N/A   Clear
5:58 PM 68.0 °F - 44.6 °F 43% 30.25 in 10.0 mi SE 6.9 mph - N/A   Scattered Clouds
6:58 PM 60.8 °F - 46.4 °F 59% 30.25 in 10.0 mi ESE 5.8 mph - N/A   Scattered Clouds
7:58 PM 59.0 °F - 48.2 °F 67% 30.26 in 10.0 mi SE 5.8 mph - N/A   Clear
8:58 PM 59.0 °F - 48.2 °F 67% 30.26 in 10.0 mi ESE 6.9 mph - N/A   Clear
9:58 PM 57.2 °F - 48.2 °F 72% 30.25 in 10.0 mi ESE 8.1 mph - N/A   Clear
10:58 PM 55.4 °F - 50.0 °F 82% 30.24 in 10.0 mi SE 10.4 mph - N/A   Clear
11:58 PM 57.2 °F - 50.0 °F 77% 30.23 in 10.0 mi SE 9.2 mph - N/A   Clear